Stations météo

Publicité
Landivisiau, France (7106): Température de l'air & dewpoint: 02.07.2020 23:00:00 - 08.07.2020 23:00:00 (CEST)Landivisiau, France (7106): Température de l'air 5cm: 02.07.2020 23:00:00 - 08.07.2020 23:00:00 (CEST)Landivisiau, France (7106): Température de l'air -20cm: 02.07.2020 23:00:00 - 08.07.2020 23:00:00 (CEST)Landivisiau, France (7106): Vitesse du vent: 02.07.2020 23:00:00 - 08.07.2020 23:00:00 (CEST)Landivisiau, France (7106): Direction du vent: 02.07.2020 23:00:00 - 08.07.2020 23:00:00 (CEST)Landivisiau, France (7106): reduced air pressure: 02.07.2020 23:00:00 - 08.07.2020 23:00:00 (CEST)Landivisiau, France (7106): visibility: 02.07.2020 23:00:00 - 08.07.2020 23:00:00 (CEST)Landivisiau, France (7106): Quantités de précipitations: 02.07.2020 23:00:00 - 08.07.2020 23:00:00 (CEST)
Date & Time tt [°C] td [°C] tt 5cm [°C] tt -20cm [°C] ff [km/h] ff [knt] dd ppp [hPa] vv [km] rr [mm]
08.07.2020 23:00:00 16,0 14,5 16,0 18,3 9 5 W 1019,5 28 0,0
08.07.2020 22:00:00 16,7 14,5 16,7 18,3 10 6 WSW 1019,1 51 0,0
08.07.2020 21:00:00 17,5 14,8 18,0 18,2 12 6 W 1019,3 33 0,0
08.07.2020 20:00:00 19,4 15,5 20,5 18,1 14 8 WNW 1019,2 20 0,0
08.07.2020 19:00:00 19,4 15,5 20,4 18,0 13 7 W 1019,7 53 0,0
08.07.2020 18:00:00 19,6 15,5 21,0 17,7 10 5 WNW 1020,1 51 0,0
08.07.2020 17:00:00 19,8 15,0 21,9 17,6 12 7 WNW 1020,4 36 0,0
08.07.2020 16:00:00 20,6 15,6 24,2 17,4 15 8 NW 1020,4 53 0,0
08.07.2020 15:00:00 20,8 15,3 24,0 17,2 15 8 WNW 1020,2 31 0,0
08.07.2020 14:00:00 19,4 15,1 22,6 17,0 13 7 W 1020,7 47 0,0
08.07.2020 13:00:00 18,7 15,2 19,4 17,0 14 8 W 1020,7 47 0,0
08.07.2020 12:00:00 17,3 14,9 17,3 17,0 12 6 WNW 1021,0 48 0,0
08.07.2020 11:00:00 16,0 15,2 16,0 17,0 11 6 WNW 1021,0 6 0,2
08.07.2020 10:00:00 14,9 14,6 14,9 17,0 12 7 WSW 1020,7 2,3 0,0
08.07.2020 09:00:00 14,2 13,9 13,9 17,1 16 8 W 1020,8 0,8 0,0
08.07.2020 08:00:00 13,6 13,1 12,7 17,2 10 6 W 1020,5 4,6 0,0
08.07.2020 07:00:00 12,6 12,1 11,0 17,3 7 4 W 1020,5 11 0,0
08.07.2020 06:00:00 12,3 11,7 10,7 17,4 10 6 WSW 1020,3 9 0,0
08.07.2020 05:00:00 11,9 11,0 10,8 17,6 15 8 SW 1020,5 13 0,0
08.07.2020 04:00:00 12,3 11,4 10,4 17,7 13 7 WSW 1021,1 14 0,0
08.07.2020 03:00:00 11,7 10,6 10,4 17,9 12 7 SSW 1021,3 15 0,0
08.07.2020 02:00:00 12,1 11,0 10,4 18,0 7 4 WSW 1021,9 17 0,0
08.07.2020 01:00:00 12,3 10,9 10,6 18,1 9 5 SW 1022,0 19 0,0
08.07.2020 00:00:00 13,0 10,7 11,5 18,3 9 5 WSW 1022,2 27 0,0
07.07.2020 23:00:00 12,8 10,5 11,1 18,4 7 4 WNW 1022,6 27 0,0
07.07.2020 22:00:00 14,1 10,1 13,1 18,4 7 4 WNW 1022,4 35 0,0
07.07.2020 21:00:00 16,1 10,2 17,7 18,4 13 7 NW 1022,3 32 0,0
07.07.2020 20:00:00 17,4 10,3 20,8 18,3 15 8 NW 1022,2 36 0,0
07.07.2020 19:00:00 18,6 10,7 23,0 18,1 17 9 NW 1022,5 32 0,0
07.07.2020 18:00:00 19,2 10,5 24,6 17,9 13 7 WNW 1022,7 30 0,0
07.07.2020 17:00:00 18,9 10,7 24,7 17,5 13 7 WNW 1023,0 31 0,0
07.07.2020 16:00:00 18,6 11,9 23,5 17,2 16 9 NW 1023,3 20 0,0
07.07.2020 15:00:00 18,7 12,2 25,5 16,8 10 6 WNW 1023,6 20 0,0
07.07.2020 14:00:00 17,6 11,6 21,6 16,5 15 8 NNW 1023,9 19 0,0
07.07.2020 13:00:00 17,8 10,2 19,6 16,4 6 3 WNW 1023,9 21 0,0
07.07.2020 12:00:00 16,7 10,1 17,3 16,3 7 4 WNW 1024,2 36 0,0
07.07.2020 11:00:00 16,6 9,8 15,4 16,3 6 3 NNW 1024,2 39 0,0
07.07.2020 10:00:00 14,6 9,8 15,7 16,3 7 4 NW 1024,6 36 0,0
07.07.2020 09:00:00 14,2 11,4 16,3 16,4 4 2 NW 1024,6 20 0,0
07.07.2020 08:00:00 11,4 10,6 8,1 16,5 3 1 WSW 1024,8 16 0,0
07.07.2020 07:00:00 9,2 8,7 5,9 16,7 4 2 W 1025,1 4,5 0,0
07.07.2020 06:00:00 9,0 8,5 5,7 16,9 4 2 W 1025,3 0,5 0,0
07.07.2020 05:00:00 9,7 9,1 6,1 17,0 3 2 WSW 1025,5 2,6 0,0
07.07.2020 04:00:00 9,5 8,7 6,4 17,2 3 2 WSW 1025,7 16 0,0
07.07.2020 03:00:00 10,7 9,6 7,2 17,3 3 1 WNW 1026,1 0,3 0,0
07.07.2020 02:00:00 10,3 8,9 7,8 17,5 2 1 W 1026,5 20 0,0
07.07.2020 01:00:00 11,3 9,9 9,6 17,6 6 3 WNW 1026,7 2,1 0,0
07.07.2020 00:00:00 11,9 10,3 9,1 17,7 4 2 WNW 1027,0 19 0,0
06.07.2020 23:00:00 11,5 9,7 8,8 17,8 5 3 N 1027,0 25 0,0
06.07.2020 22:00:00 12,7 9,5 11,6 17,9 8 5 NNW 1027,0 38 0,0
06.07.2020 21:00:00 14,4 9,8 14,9 17,9 16 8 NNW 1027,1 35 0,0
06.07.2020 20:00:00 15,7 9,6 17,4 17,8 18 10 N 1026,9 20 0,0
06.07.2020 19:00:00 15,9 9,6 19,7 17,7 16 9 NNW 1026,7 37 0,0
06.07.2020 18:00:00 16,4 9,3 20,7 17,5 19 10 NNW 1026,6 19 0,0
06.07.2020 17:00:00 16,4 10,0 19,8 17,3 17 9 NNW 1026,5 36 0,0
06.07.2020 16:00:00 17,7 10,3 19,9 17,0 17 9 N 1026,3 20 0,0
06.07.2020 15:00:00 16,8 9,0 20,7 16,8 21 11 NNW 1026,3 20 0,0
06.07.2020 14:00:00 16,3 7,8 18,0 16,7 22 12 N 1026,6 24 0,0
06.07.2020 13:00:00 15,4 10,8 17,6 16,6 20 11 NNW 1026,3 18 0,0
06.07.2020 12:00:00 15,9 11,1 15,4 16,5 17 9 NNW 1025,9 20 0,0
06.07.2020 11:00:00 15,6 9,7 17,1 16,5 22 12 NNW 1025,6 37 0,0
06.07.2020 10:00:00 14,6 10,0 13,9 16,5 23 13 NNW 1025,3 19 0,0
06.07.2020 09:00:00 13,7 10,7 13,2 16,6 15 8 NNW 1024,9 17 0,0
06.07.2020 08:00:00 12,5 10,4 11,0 16,7 7 4 W 1024,4 16 0,0
06.07.2020 07:00:00 11,6 9,7 10,0 16,8 9 5 W 1023,8 16 0,0
06.07.2020 06:00:00 11,0 9,4 9,3 17,0 7 4 WNW 1023,6 15 0,0
06.07.2020 05:00:00 12,5 10,0 11,1 17,1 11 6 NW 1023,2 16 0,0
06.07.2020 04:00:00 12,4 9,8 10,8 17,2 9 5 W 1023,4 17 0,0
06.07.2020 03:00:00 12,0 9,9 11,0 17,3 7 4 WSW 1023,6 16 0,0
06.07.2020 02:00:00 12,0 10,1 10,4 17,4 13 7 WSW 1023,5 16 0,0
06.07.2020 01:00:00 12,0 9,9 10,9 17,6 11 6 WSW 1023,5 16 0,0
06.07.2020 00:00:00 12,3 10,0 11,0 17,7 8 5 WSW 1023,2 19 0,0
05.07.2020 23:00:00 12,6 9,8 11,3 17,8 10 5 W 1023,0 32 0,0
05.07.2020 22:00:00 13,7 9,7 13,0 17,8 12 7 WNW 1022,4 40 0,0
05.07.2020 21:00:00 14,9 9,5 15,0 17,8 18 10 WNW 1022,0 18 0,0
05.07.2020 20:00:00 15,7 10,9 16,0 17,8 19 10 WNW 1021,6 20 0,0
05.07.2020 19:00:00 17,6 9,2 18,7 17,7 24 13 WNW 1021,1 18 0,0
05.07.2020 18:00:00 17,7 9,3 18,5 17,6 27 14 WNW 1021,0 20 0,0
05.07.2020 17:00:00 17,4 11,4 19,5 17,5 23 13 NW 1020,7 25 0,0
05.07.2020 16:00:00 18,0 12,0 19,3 17,4 26 14 WNW 1020,5 20 0,0
05.07.2020 15:00:00 17,2 12,7 17,1 17,3 23 12 W 1020,2 35 0,0
05.07.2020 14:00:00 16,6 13,5 16,8 17,3 23 12 WNW 1020,0 6 0,2
05.07.2020 13:00:00 16,1 15,1 15,9 17,2 18 10 WNW 1019,7 13 0,0
05.07.2020 12:00:00 17,1 16,0 16,7 17,2 22 12 W 1019,1 8 0,0
05.07.2020 11:00:00 16,6 15,8 16,4 17,2 24 13 W 1019,0 6 0,0
05.07.2020 10:00:00 16,3 15,7 16,1 17,2 23 13 W 1018,8 49 0,2
05.07.2020 09:00:00 15,9 15,6 15,7 17,2 22 12 WSW 1018,3 2,9 0,2
05.07.2020 08:00:00 15,6 15,3 15,3 17,2 24 13 WSW 1017,9 2,6 0,0
05.07.2020 07:00:00 15,3 15,0 15,1 17,3 24 13 WSW 1018,0 2,0 0,0
05.07.2020 06:00:00 15,3 15,0 15,1 17,3 26 14 WSW 1018,1 2,8 0,2
05.07.2020 05:00:00 15,4 15,1 15,2 17,4 27 14 WSW 1018,2 2,1 0,0
05.07.2020 04:00:00 15,4 15,1 15,2 17,4 25 14 WSW 1018,4 3,4 0,0
05.07.2020 03:00:00 15,4 15,2 15,3 17,4 26 14 WSW 1018,5 1,9 0,2
05.07.2020 02:00:00 15,5 15,2 15,4 17,5 27 15 WSW 1018,8 2,9 0,0
05.07.2020 01:00:00 15,6 15,3 15,6 17,5 27 15 WSW 1019,0 2,0 0,0
05.07.2020 00:00:00 15,8 15,5 15,5 17,5 25 14 WSW 1018,9 3,1 0,0
04.07.2020 23:00:00 15,7 15,2 15,5 17,6 29 16 WSW 1018,8 4,5 0,0
04.07.2020 22:00:00 16,0 15,5 15,9 17,6 26 14 WSW 1018,3 6 0,0
04.07.2020 21:00:00 16,2 15,7 16,2 17,6 22 12 WSW 1018,2 2,6 0,2
04.07.2020 20:00:00 16,6 16,0 16,6 17,6 26 14 WSW 1018,3 2,9 0,0
04.07.2020 19:00:00 16,7 16,1 16,7 17,5 28 15 WSW 1018,3 3,0 0,0
04.07.2020 18:00:00 16,7 16,1 16,7 17,5 31 17 WSW 1018,3 4,8 0,0
04.07.2020 17:00:00 16,9 16,4 17,0 17,4 27 15 WSW 1018,2 4,5 0,0
04.07.2020 16:00:00 17,1 16,6 17,4 17,4 32 18 WSW 1018,3 2,5 0,0
04.07.2020 15:00:00 17,4 16,9 17,6 17,3 34 18 WSW 1018,1 2,3 0,0
04.07.2020 14:00:00 17,4 16,8 17,5 17,2 32 17 WSW 1017,9 3,5 0,0
04.07.2020 13:00:00 17,2 16,6 17,6 17,1 34 18 WSW 1018,1 2,4 0,0
04.07.2020 12:00:00 17,3 16,7 17,6 17,1 34 19 WSW 1017,4 2,4 0,0
04.07.2020 11:00:00 17,1 16,6 16,8 17,1 29 16 WSW 1017,5 3,4 0,0
04.07.2020 10:00:00 16,6 16,3 16,5 17,1 32 18 WSW 1017,4 2,6 0,2
04.07.2020 09:00:00 16,4 16,1 16,1 17,1 29 16 WSW 1017,2 4,5 0,2
04.07.2020 08:00:00 16,2 15,9 15,9 17,2 33 18 SW 1017,3 2,1 0,2
04.07.2020 07:00:00 16,0 15,7 15,6 17,2 31 17 SW 1017,1 3,6 0,2
04.07.2020 06:00:00 15,7 15,4 15,4 17,3 30 16 SW 1017,1 3,5 0,4
04.07.2020 05:00:00 15,5 15,2 15,2 17,3 26 14 SW 1017,3 3,1 0,6
04.07.2020 04:00:00 15,3 15,0 14,9 17,4 31 17 SW 1018,0 2,5 0,2
04.07.2020 03:00:00 15,1 14,8 14,7 17,5 28 15 SW 1018,4 3,2 0,2
04.07.2020 02:00:00 14,9 14,4 14,6 17,5 35 19 SW 1018,9 3,6 0,4
04.07.2020 01:00:00 15,1 14,0 14,6 17,6 32 17 SW 1019,3 4,5 0,0
04.07.2020 00:00:00 15,5 13,2 15,2 17,7 30 16 SW 1019,6 34 0,0
03.07.2020 23:00:00 15,4 12,5 15,0 17,8 28 15 SW 1019,9 44 0,0
03.07.2020 22:00:00 15,3 12,1 15,1 17,9 26 14 SW 1019,9 46 0,0
03.07.2020 21:00:00 15,6 11,6 15,4 17,9 31 17 SW 1020,5 36 0,0
03.07.2020 20:00:00 16,2 10,7 16,6 17,8 30 16 SW 1020,3 15 0,0
03.07.2020 19:00:00 16,8 10,9 17,4 17,7 35 19 SW 1020,6 19 0,0
03.07.2020 18:00:00 17,6 10,9 19,2 17,5 36 19 WSW 1020,7 8 0,0
03.07.2020 17:00:00 17,6 11,4 19,4 17,2 35 19 SW 1021,2 8 0,0
03.07.2020 16:00:00 17,9 10,0 20,7 17,0 35 19 SW 1021,3 9 0,0
03.07.2020 15:00:00 17,5 10,4 19,7 16,8 34 18 SW 1021,4 12 0,0
03.07.2020 14:00:00 18,2 10,6 21,3 16,5 30 16 WSW 1021,8 16 0,0
03.07.2020 13:00:00 18,1 10,5 21,9 16,4 28 15 SW 1022,0 18 0,0
03.07.2020 12:00:00 17,8 11,6 17,0 16,3 23 13 WSW 1021,6 21 0,0
03.07.2020 11:00:00 15,3 12,2 15,1 16,3 19 10 WSW 1021,7 30 0,0
03.07.2020 10:00:00 15,4 12,9 14,8 16,3 16 9 SW 1021,5 19 0,0
03.07.2020 09:00:00 14,4 12,1 16,0 16,4 16 8 SW 1021,6 24 0,0
03.07.2020 08:00:00 13,0 11,9 10,7 16,5 10 5 SW 1021,7 19 0,0
03.07.2020 07:00:00 11,4 10,8 9,7 16,6 9 5 SW 1021,9 15 0,0
03.07.2020 06:00:00 10,9 10,6 7,9 16,8 11 6 WSW 1021,7 16 0,0
03.07.2020 05:00:00 10,5 10,0 8,2 16,9 10 5 WSW 1021,5 15 0,0
03.07.2020 04:00:00 10,5 9,9 8,2 17,0 10 5 SW 1021,5 9 0,0
03.07.2020 03:00:00 11,2 10,6 8,8 17,2 12 6 WSW 1021,4 15 0,0
03.07.2020 02:00:00 11,9 11,1 10,3 17,2 11 6 WSW 1021,5 11 0,0
03.07.2020 01:00:00 12,1 11,0 10,2 17,3 10 5 WSW 1021,6 13 0,0
03.07.2020 00:00:00 13,2 11,6 12,2 17,4 10 5 WSW 1021,3 19 0,0
02.07.2020 23:00:00 13,5 11,4 12,4 17,5 9 5 W 1021,1 25 0,0

tt = Température de l'air
td = dewpoint
tt 5cm = Température de l'air 5cm
tt -20cm = Température de l'air -20cm
ff = Vitesse du vent
dd = Direction du vent
ppp = reduced air pressure
vv = visibility
rr = Quantités de précipitations

stations d'obs. à proximité